logo tempoitalia

Diretta Meteo Krasnodar, Russialunedì 31 agosto ore 08:00

Mappa
Sereno 21 °C Sereno 24 Ore: T.min 18 T.max 29
Ponente Est/Nord-Est Km/h 28.8 Punto di rugiada: 13 °C Umidità: 60% Visibilità: 10 Km
Il sole sorge alle: 05:44 Il sole tramonta alle: 19:03
31 Agosto 2026 08:00 tempo osservato: Sereno Sereno 21 60 1015 vento: Nord E/NE 28.8
31 Agosto 2026 07:30 tempo osservato: Sereno Sereno 20 64 1016 vento: Nord E/NE 25.2
31 Agosto 2026 07:00 tempo osservato: Sereno Sereno 19 63 1016 vento: Nord E/NE 21.6
31 Agosto 2026 06:30 tempo osservato: Sereno Sereno 18 63 1016 vento: Nord E/NE 18
31 Agosto 2026 06:00 tempo osservato: Sereno Sereno 18 59 1015 vento: Nord E/NE 21.6
31 Agosto 2026 05:30 tempo osservato: Sereno Sereno 19 55 1015 vento: Nord E/NE 25.2
31 Agosto 2026 05:00 tempo osservato: Sereno Sereno 19 55 1015 vento: Nord E/NE 21.6
31 Agosto 2026 04:30 tempo osservato: Sereno Sereno 19 55 1015 vento: Nord E/NE 25.2
31 Agosto 2026 04:00 tempo osservato: Sereno Sereno 19 55 1015 vento: Nord E/NE 25.2
31 Agosto 2026 03:30 tempo osservato: Sereno Sereno 20 52 1015 vento: Nord E/NE 25.2
31 Agosto 2026 03:00 tempo osservato: Sereno Sereno 20 56 1015 vento: Nord E/NE 25.2
31 Agosto 2026 02:30 tempo osservato: Sereno Sereno 20 59 1015 vento: Nord E/NE 21.6
31 Agosto 2026 02:00 tempo osservato: Sereno Sereno 19 63 1015 vento: Nord NE 18
31 Agosto 2026 01:30 tempo osservato: Sereno Sereno 19 63 1015 vento: Nord NE 25.2
31 Agosto 2026 01:00 tempo osservato: Sereno Sereno 20 64 1015 vento: Nord E/NE 18
31 Agosto 2026 00:30 tempo osservato: Sereno Sereno 20 64 1015 vento: Nord E/NE 21.6
31 Agosto 2026 00:00 tempo osservato: Sereno Sereno 18 72 1015 vento: Nord NE 14.4
30 Agosto 2026 23:30 tempo osservato: Sereno Sereno 19 68 1015 vento: Nord E/NE 14.4
30 Agosto 2026 23:00 tempo osservato: Sereno Sereno 20 64 1015 vento: Nord E/NE 18
30 Agosto 2026 22:30 tempo osservato: Sereno Sereno 21 60 1015 vento: Nord E 21.6
30 Agosto 2026 22:00 tempo osservato: Sereno Sereno 22 60 1015 vento: Nord E 21.6
30 Agosto 2026 21:30 tempo osservato: Sereno Sereno 22 60 1015 vento: Nord E 25.2
30 Agosto 2026 21:00 tempo osservato: Sereno Sereno 22 60 1015 vento: Nord E 21.6
30 Agosto 2026 20:30 tempo osservato: Sereno Sereno 23 56 1015 vento: Nord E 25.2
30 Agosto 2026 20:00 tempo osservato: Sereno Sereno 24 53 1015 vento: Nord E 28.8
30 Agosto 2026 19:30 tempo osservato: Sereno Sereno 24 53 1014 vento: Nord E 28.8
30 Agosto 2026 19:00 tempo osservato: Sereno Sereno 25 50 1014 vento: Nord E 25.2
30 Agosto 2026 18:30 tempo osservato: Sereno Sereno 26 47 1014 vento: Nord E 28.8
30 Agosto 2026 18:00 tempo osservato: Sereno Sereno 27 42 1014 vento: Nord E 28.8
30 Agosto 2026 17:41 tempo osservato: Sereno Sereno 27 44 1014 vento: Nord E 28.8
30 Agosto 2026 17:30 tempo osservato: Sereno Sereno 27 42 1014 vento: Nord E 28.8
30 Agosto 2026 17:00 tempo osservato: Sereno Sereno 28 39 1014 vento: Nord E 36
30 Agosto 2026 16:43 tempo osservato: Sereno Sereno 28 39 1014 vento: Nord E 32.4
30 Agosto 2026 16:30 tempo osservato: Sereno Sereno 28 39 1014 vento: Nord E 32.4
30 Agosto 2026 16:22 tempo osservato: Sereno Sereno 29 37 1014 vento: Nord E 32.4
30 Agosto 2026 16:02 tempo osservato: Sereno Sereno 29 35 1014 vento: Nord E 32.4
30 Agosto 2026 16:00 tempo osservato: Sereno Sereno 29 35 1014 vento: Nord E 32.4
30 Agosto 2026 15:51 tempo osservato: Sereno Sereno 29 35 1014 vento: Nord E 36
30 Agosto 2026 15:30 tempo osservato: Sereno Sereno 29 35 1014 vento: Nord E 36
30 Agosto 2026 15:15 tempo osservato: Sereno Sereno 29 35 1014 vento: Nord E 32.4
30 Agosto 2026 15:00 tempo osservato: Sereno Sereno 29 32 1014 vento: Nord E 32.4
30 Agosto 2026 14:44 tempo osservato: Sereno Sereno 29 32 1014 vento: Nord E 36
30 Agosto 2026 14:30 tempo osservato: Sereno Sereno 29 32 1014 vento: Nord E 32.4
30 Agosto 2026 14:17 tempo osservato: Sereno Sereno 29 35 1014 vento: Nord E 32.4
30 Agosto 2026 14:00 tempo osservato: Sereno Sereno 29 35 1014 vento: Nord E 28.8
30 Agosto 2026 13:30 tempo osservato: Sereno Sereno 28 34 1014 vento: Nord E 36
30 Agosto 2026 13:00 tempo osservato: Sereno Sereno 28 34 1014 vento: Nord E 39.6
30 Agosto 2026 12:55 tempo osservato: Sereno Sereno 28 34 1014 vento: Nord E 36
30 Agosto 2026 12:30 tempo osservato: Sereno Sereno 28 34 1014 vento: Nord E 36
30 Agosto 2026 12:04 tempo osservato: Sereno Sereno 28 37 1014 vento: Nord E 32.4
30 Agosto 2026 12:00 tempo osservato: Sereno Sereno 27 36 1014 vento: Nord E 32.4
30 Agosto 2026 11:30 tempo osservato: Sereno Sereno 27 39 1014 vento: Nord E 39.6
30 Agosto 2026 11:00 tempo osservato: Sereno Sereno 26 41 1014 vento: Nord E/NE 36
30 Agosto 2026 10:34 tempo osservato: Sereno Sereno 25 41 1014 vento: Nord E 32.4
30 Agosto 2026 10:30 tempo osservato: Sereno Sereno 26 39 1015 vento: Nord E 32.4
30 Agosto 2026 10:00 tempo osservato: Sereno Sereno 25 41 1015 vento: Nord E 32.4
30 Agosto 2026 09:58 tempo osservato: Sereno Sereno 25 41 1015 vento: Nord E/NE 32.4
30 Agosto 2026 09:46 tempo osservato: Sereno Sereno 24 43 1014 vento: Nord E/NE 32.4
30 Agosto 2026 09:30 tempo osservato: Sereno Sereno 24 43 1014 vento: Nord E 36
30 Agosto 2026 09:24 tempo osservato: Sereno Sereno 24 41 1014 vento: Nord E 28.8
30 Agosto 2026 09:00 tempo osservato: Sereno Sereno 24 43 1014 vento: Nord E 28.8